#timestamp,LO_Frequency,Hit,StdDev 
1551880815.1,286047010.1,N
1551880835.9,286047010.3,N
1551880855.7,286047010.7,N
1551880875.6,286047010.6,N
1551880895.4,286047010.7,N
1551880915.2,286047010.8,N
1551880935.1,286047007.9,N
1551880936.0,286047007.9,N
1551880955.8,286047010.0,N
1551880975.7,286047013.4,N
1551880995.5,286047014.8,N
1551881015.3,286047015.5,N
1551881035.2,286047016.3,N
1551881055.0,286047018.2,Y
1551881055.9,286047018.2,P
1551881075.8,286047013.6,N
1551881095.6,286047014.7,P
1551881115.4,286047016.7,Y
1551881135.3,286047002.0,P
1551881155.1,286047002.2,N
1551881175.8,286047004.0,N
1551881195.7,286047001.3,N
1551881215.5,286047004.4,N
1551881235.4,286047001.8,N
1551881255.2,286047001.8,N
1551881275.0,286047002.4,N
1551881275.9,286047002.4,N
1551881295.8,286046999.7,N
1551881315.6,286047000.6,N
1551881335.4,286046999.1,N
1551881355.3,286046997.6,N
1551881375.1,286046995.3,N
1551881395.9,286046997.7,N
1551881415.7,286046997.6,N
1551881435.5,286046999.2,N
1551881455.4,286046996.2,N
1551881475.2,286046996.0,N
1551881495.0,286046993.8,N
1551881495.9,286046993.8,N
1551881515.8,286046996.1,N
1551881535.6,286046996.1,N
1551881555.5,286046995.5,N
1551881575.3,286046995.2,N
1551881595.1,286046995.8,N
1551881615.9,286046997.5,N
1551881635.7,286046994.9,N
1551881655.5,286046997.7,N
1551881675.4,286046996.7,N
1551881695.2,286046999.3,N
1551881715.1,286047001.1,N
1551881716.0,286047001.1,N
1551881735.8,286046997.0,N
1551881755.6,286046995.1,N
1551881775.5,286046997.3,N
1551881795.3,286046997.2,N
1551881815.2,286046997.2,N
1551881835.9,286046997.5,N
1551881855.7,286046995.5,N
1551881875.6,286046996.4,N
1551881895.4,286046993.8,Y
1551881915.2,286046997.2,P
1551881935.1,286046999.5,P
1551881936.0,286046999.5,N
1551881955.8,286046996.6,N
1551881975.7,286046996.2,N
1551881995.5,286046993.7,Y
1551882015.3,286046996.9,P
1551882035.2,286046999.2,N
1551882055.0,286047001.2,N
1551882055.9,286047001.2,N
1551882075.8,286047000.8,N
1551882095.6,286046997.3,N
1551882115.4,286046993.5,Y
1551882135.3,286046992.0,P
1551882155.1,286046991.9,N
1551882175.9,286046991.1,N
1551882195.7,286046991.0,N
1551882215.5,286046992.4,N
1551882235.4,286046995.9,N
1551882255.2,286046999.2,N
1551882275.0,286046997.8,N
1551882275.9,286046997.8,N
1551882295.8,286046997.5,N
1551882315.6,286046997.6,N
1551882335.5,286046996.5,N
1551882355.3,286047000.9,N
1551882375.1,286047000.6,N
1551882395.9,286047003.7,N
1551882415.7,286047005.5,N
1551882435.5,286047005.6,N
1551882455.4,286047002.9,N
1551882475.2,286047002.9,N
1551882495.1,286047001.8,N
1551882496.0,286047001.8,N
1551882515.8,286047002.6,N
1551882535.6,286047001.2,N
1551882555.5,286046999.6,N
1551882575.3,286046997.1,N
1551882595.2,286046995.8,N
1551882615.9,286046995.7,N
1551882635.7,286046994.1,N
1551882655.6,286046993.5,N
1551882675.4,286046993.9,N
1551882695.2,286046994.1,N
1551882715.1,286046996.7,N
1551882716.0,286046996.7,N
1551882735.8,286046998.7,N
1551882755.7,286046998.7,N
1551882775.5,286046999.3,N
1551882795.3,286047000.4,N
1551882815.2,286047000.7,N
1551882835.0,286047002.0,N
1551882835.9,286047002.0,N
1551882855.7,286047003.2,N
1551882875.6,286047005.5,N
1551882895.4,286047004.2,N
1551882915.3,286047006.0,N
1551882935.1,286047001.3,N
1551882936.0,286047001.3,N
1551882955.8,286047002.3,N
1551882975.7,286047000.0,N
1551882995.5,286047000.8,N
1551883015.3,286046998.5,N
1551883035.2,286046998.4,N
1551883055.0,286046999.1,N
1551883055.9,286046999.1,N
1551883075.8,286046996.6,N
1551883095.6,286046998.4,N
1551883115.4,286046996.8,N
1551883135.3,286046996.3,N
1551883155.1,286046993.6,N
1551883175.9,286046995.1,N
1551883195.7,286046995.8,N
1551883215.5,286046997.1,N
1551883235.4,286046999.0,N
1551883255.2,286046999.4,N
1551883275.0,286046998.3,N
1551883275.9,286046998.3,N
1551883295.8,286046998.8,N
1551883315.6,286047001.0,N
1551883335.5,286046999.9,N
1551883355.3,286046999.8,N
1551883375.1,286046999.8,N
1551883395.9,286047004.0,N
1551883415.7,286047003.4,N
1551883435.5,286047003.0,N
1551883455.4,286047001.3,N
1551883475.2,286047001.7,N
1551883495.1,286047001.4,N
1551883496.0,286047001.4,N
1551883515.8,286047003.1,N
1551883535.6,286047005.6,N
1551883555.5,286047003.0,N
1551883575.3,286047001.9,N
1551883595.2,286047004.2,N
1551883615.9,286047001.4,N
1551883635.7,286047002.3,N
1551883655.6,286046999.7,N
1551883675.4,286047000.2,N
1551883695.2,286047000.6,N
1551883715.1,286046998.7,N
1551883716.0,286046998.7,N
1551883735.8,286046998.0,N
1551883755.7,286046993.4,Y
1551883775.5,286046994.2,P
1551883795.3,286046992.2,N
1551883815.2,286046991.3,N
1551883835.0,286046989.3,N
1551883835.9,286046989.3,N
1551883855.7,286046987.0,Y
1551883875.6,286046998.4,P
1551883895.4,286047003.7,N
1551883915.3,286047009.1,N
1551883935.1,286047012.0,N
1551883955.8,286047013.1,N
1551883975.7,286047013.6,N
1551883995.5,286047013.5,N
1551884015.4,286047011.3,N
1551884035.2,286047011.4,N
1551884055.0,286047011.8,N
1551884055.9,286047011.8,N
1551884075.8,286047011.5,N
1551884095.6,286047012.2,N
1551884115.4,286047009.9,N
1551884135.3,286047006.1,N
1551884155.1,286047010.8,N
1551884175.9,286047008.1,N
1551884195.7,286047010.5,N
1551884215.5,286047008.1,N
1551884235.4,286047010.5,N
1551884255.2,286047011.8,N
1551884275.0,286047011.1,N
1551884275.9,286047011.1,N
1551884295.8,286047012.4,N
1551884315.6,286047011.8,N
1551884335.5,286047011.5,N
1551884355.3,286047013.9,Y
1551884375.1,286047003.5,P
1551884395.9,286047002.2,N
